sat.trackr.live / text

‹ back to catalog

STARLINK-2467

NORAD 48126 · 2021-027AL

PAYLOAD ACTIVE UNKNOWN

§ Identity

Operator
Country
US
Launch date
2021-04-07
Launch site
AFETR
Launch vehicle
Mass (kg)
RCS (m²)

Purposes: comms

External: N2YO · Heavens-Above · Gunter

§ Orbital elements

Epoch: 2026-09-20T04:21:45.090432Z

Period
94.01 min
Inclination
53.1614°
Eccentricity
0.0001109
Mean motion
15.31704620 rev/d
Perigee alt
470.0 km
Apogee alt
471.5 km
Semi-major
6,848.9 km
B*
5.9061e-5
RAAN
327.3360°
Arg perigee
81.5669°
Mean anomaly
278.5458°
Rev number
30,249

§ Raw data

STARLINK-24671 48126U 21027AL  26263.18177188  .00001468  00000+0  59061-4 0  99962 48126  53.1614 327.3360 0001109  81.5669 278.5458 15.31704620302499

JSON: /api/v1/satellites/48126 · /tle

For live sub-satellite position, see the globe view (requires WebGL).

§ Visibility from observer

Set your observer location to see the next 7 days of passes ≥ 10°. The values pass through the URL so the page stays shareable.

No JS? Fill the form by hand. The geolocation button needs JavaScript.